User: anonymous   Login
Location: Rumah Long Bangan
(2.8362°N, 113.7519°E)
Time: 11:34:40
(UTC+00:00)
Language:

Cosmos 332 Rocket - Orbit

View from above orbital plane
View from above orbital plane
View from above satellite
View from above satellite

Ground track
Ground track

The orbit data is extracted from the following two-line orbital elements,

1 04370U 70028B   22025.70528263  .00000142  00000-0  35712-4 0  9994
2 04370  74.0397 117.4668 0016419 323.3746  36.6296 14.60170128257194
Epoch (UTC): 25 January 2022 16:55:36
Eccentricity: 0.0016419
inclination: 74.0397°
perigee height: 681 km
apogee height: 704 km
right ascension of ascending node: 117.4668°
argument of perigee: 323.3746°
revolutions per day: 14.60170128
mean anomaly at epoch: 36.6296°
orbit number at epoch: 25719

The dashed part of the orbit path shows where the satellite is in the earth's shadow,  

DLR